Weather Service Report


228 
ASUS43 KLSX 050107
RWRMO 

WEATHER SUMMARY FOR MISSOURI
NATIONAL WEATHER SERVICE SPRINGFIELD MO
700 PM CST SUN DEC 04 2016

NOTE: "FAIR" INDICATES FEW OR NO CLOUDS BELOW 12,000 FEET WITH NO
       SIGNIFICANT WEATHER AND/OR OBSTRUCTIONS TO VISIBILITY.
       CURRENT SKY AND/OR WEATHER CONDITIONS ARE NOT AVAILABLE FOR
       CHILLICOTHE AND FARMINGTON.

MOZ001>031-035>038-043-044-053-054-050200-
...NORTHERN AND WESTERN MISSOURI...
  
CITY           SKY/WX    TMP DP  RH WIND       PRES   REMARKS
KANSAS CTY INT CLEAR     33  30  88 SW8       29.99S WCI  26          
KANSAS C DTWN  CLEAR     38  35  89 SW6       30.00S                  
LEE'S SUMMIT   CLEAR     38  35  89 SW7       30.00S                  
ST JOSEPH      CLEAR     33  32  96 SW6       29.99S WCI  28          
CHILLICOTHE      N/A     35  34  96 CALM      30.00R                  
KIRKSVILLE     CLOUDY    36  34  92 W3        29.97S                  
     
$$
MOZ066>068-077>081-088>096-101>105-050200-
...SOUTHWEST MISSOURI...
  
CITY           SKY/WX    TMP DP  RH WIND       PRES   REMARKS
SPRINGFIELD    CLEAR     38  34  85 CALM      30.01F                  
JOPLIN         CLEAR     36  35  96 CALM      30.04S                  
BRANSON        CLOUDY    41  37  87 NW6       30.03S                  
               
$$
MOZ032>034-039>042-045>050-055>058-069>072-050200-
...CENTRAL MISSOURI...  
  
CITY           SKY/WX    TMP DP  RH WIND       PRES   REMARKS
COLUMBIA       PTCLDY    37  35  92 W6        30.01R                  
JEFFERSON CITY CLEAR     40  36  86 CALM      30.02R                  
ROLLA          PTCLDY    37  36  96 W7        30.00R                  
SEDALIA        CLEAR     38  34  85 SW7       30.02S                  
WHITEMAN AFB   CLEAR     35  35 100 SW7       30.00R WCI  29          
WARRENSBURG    CLEAR     36  34  93 SW6       30.01S                  
OSAGE BEACH    CLEAR     36  34  92 CALM      30.03R                  
               
$$
MOZ051-052-059>065-050200-
...EAST CENTRAL MISSOURI...
  
CITY           SKY/WX    TMP DP  RH WIND       PRES   REMARKS
ST LOUIS INTL  CLOUDY    40  34  79 W12       30.01R                  
SPIRIT OF STL  CLOUDY    40  37  89 W8        30.01R                  
ST CHARLES     CLOUDY    39  35  86 W17       30.01R WCI  30          
                   
$$
MOZ072>076-082>087-097>100-106>115-050200-
...SOUTH CENTRAL AND SOUTHEAST MISSOURI...
  
CITY           SKY/WX    TMP DP  RH WIND       PRES   REMARKS
CAPE GIRARDEAU CLOUDY    43  37  79 NW7       30.02R                  
FARMINGTON     CLOUDY    41  36  82 NW7       30.00R                  
POPLAR BLUFF   CLOUDY    44  39  82 W3        30.03R                  
WEST PLAINS    CLOUDY    39  36  89 W3        30.02R                  
                                       
$$

Return to Home page


Western Regional Climate Center, wrcc@dri.edu